RH
12 8 6 14 20 19 17 16 14 14 44 65 77 63 75 72 74 68 63 55 59 56 54 35 38 47 17 14 22 24 23 26 25 25 26 19 19 30 30 38 64 77 78 81
7 5 10 16 13 12 21 20 16 29 55 93 76 48 68 70 79 73 60 61 59 51 42 29 42 42 14 20 22 25 24 19 27 34 34 39 36 34 32 47 66 79 80 86
5 5 10 8 14 15 13 21 35 47 69 76 95 52 74 75 72 55 61 76 83 56 51 29 36 32 16 22 20 20 19 20 23 31 43 56 43 38 46 67 61 68 78 82
6 6 6 8 9 35 14 56 70 83 80 63 90 48 70 84 68 63 75 80 80 63 59 25 41 29 23 24 21 16 16 18 19 38 42 44 63 46 50 51 80 86 95 81
10 11 17 16 17 53 32 71 81 78 71 69 67 85 40 91 84 67 69 73 68 65 47 37 39 33 25 24 22 16 14 11 10 21 24 21 39 56 54 77 94 96 81 86
3 8 9 12 31 43 56 86 92 84 79 60 64 88 45 73 87 80 84 88 77 63 44 38 47 31 27 24 18 16 15 12 9 8 14 26 43 55 70 80 96 94 95 99
16 7 32 64 62 62 65 98 92 83 76 56 91 83 46 80 99 95 98 74 74 68 40 32 31 19 22 21 16 15 15 17 14 10 14 23 70 73 86 95 97 96 96 99
14 18 55 67 64 69 79 100 94 96 84 90 98 80 85 92 89 96 97 94 87 65 45 30 42 20 24 22 16 16 14 14 16 13 18 15 22 81 94 96 96 98 94 96
36 32 68 77 93 79 81 83 93 100 98 90 90 100 97 94 98 97 98 96 85 63 62 39 44 35 23 30 20 18 15 14 14 20 18 18 14 22 56 74 89 95 93 95
48 48 67 79 78 97 88 99 100 94 89 93 83 99 98 100 91 94 98 98 96 82 62 36 37 41 21 34 33 20 20 16 14 15 23 22 19 17 12 11 13 26 57 74
94 87 86 90 92 95 99 96 100 100 88 83 89 94 98 95 98 100 99 99 100 84 60 45 32 44 21 27 38 23 21 22 15 17 19 25 25 25 24 19 16 12 12 14
90 98 66 92 93 81 90 99 98 90 88 100 98 94 100 96 98 97 93 67 100 78 76 51 34 51 26 24 46 28 22 24 19 19 17 20 27 29 26 30 39 31 22 19
99 73 43 53 62 92 94 100 100 100 88 91 84 76 85 98 94 98 96 91 97 100 76 59 46 44 54 28 41 46 41 26 24 20 22 26 25 31 35 33 36 49 57 54
62 27 32 65 87 85 100 66 100 87 76 72 70 81 100 100 99 95 97 92 92 97 94 68 56 62 63 45 40 49 58 36 31 27 25 29 34 37 34 31 25 39 55 57
29 58 54 22 70 87 84 72 56 100 100 95 98 84 99 100 98 98 96 95 98 95 59 61 41 52 50 54 48 58 59 44 39 38 33 36 39 43 42 43 32 21 25 61
30 62 86 61 21 20 90 81 80 72 69 69 76 71 78 86 81 92 100 98 98 85 96 77 50 37 30 49 57 54 58 50 50 52 50 45 40 43 43 49 45 40 33 27
36 92 73 22 75 62 48 48 97 91 77 64 36 18 21 44 56 63 95 98 95 96 88 74 58 56 43 59 77 66 55 60 64 63 64 66 54 47 49 47 54 48 56 45
90 31 22 18 15 22 29 32 40 63 41 35 50 50 37 18 14 45 71 49 35 54 63 66 43 48 43 41 69 97 89 64 56 51 56 56 65 67 59 50 54 64 45 52
96 78 31 63 40 23 24 19 16 14 12 8 5 6 9 8 9 18 22 24 17 12 9 33 61 70 50 38 39 66 80 78 73 58 54 52 69 75 77 64 60 60 50 56
66 31 30 12 11 13 17 15 10 19 10 10 8 8 7 6 20 13 20 59 39 32 12 64 57 51 59 57 77 78 67 76 80 94 86 82 83 78 81 77 67 66 60 72
58 20 20 25 10 16 16 30 71 82 64 21 14 14 20 57 73 72 47 58 56 52 42 91 89 88 86 84 90 94 87 82 70 90 97 95 98 96 97 97 98 88 86 82
100 80 68 57 34 31 32 42 98 100 100 75 41 73 50 100 100 99 83 52 88 98 98 88 83 98 96 65 60 83 79 68 58 65 83 92 99 99 97 99 95 88 95 95
97 95 94 75 73 74 64 39 77 100 100 96 78 87 94 100 100 99 100 95 95 92 96 84 99 92 69 51 36 49 73 76 62 56 65 92 99 100 100 100 100 99 97 92
91 100 94 100 95 99 85 71 85 98 71 54 77 78 100 100 93 98 100 100 100 90 50 65 75 50 41 41 64 65 51 44 58 52 53 60 77 94 99 100 100 98 99 98
87 96 90 97 95 90 98 100 100 96 95 84 64 94 100 100 97 96 100 100 98 96 78 70 80 80 59 61 58 56 58 66 65 66 67 59 64 81 84 86 87 90 86 79
91 100 97 90 91 93 89 92 100 92 84 82 83 78 100 92 98 99 100 98 98 96 95 88 89 96 95 81 68 66 61 49 49 52 79 90 84 81 96 89 94 93 97 97
Wind_Speed
31 40 42 35 36 39 42 43 44 44 46 50 46 41 45 47 32 34 39 37 32 27 30 24 18 27 21 17 18 19 17 16 19 22 23 21 22 23 25 21 23 19 22 23
38 41 34 34 38 42 44 46 48 48 51 50 47 49 44 56 35 34 34 35 28 24 31 22 14 24 16 16 17 16 14 14 17 19 20 16 18 20 22 18 22 24 26 19
34 36 36 39 40 44 46 45 45 50 52 55 50 50 47 51 48 42 31 35 28 24 29 21 13 23 16 15 16 13 13 13 15 18 20 15 15 18 20 20 20 25 24 19
36 36 38 41 42 44 46 42 43 48 52 55 42 51 48 54 55 36 35 34 27 26 27 19 12 20 18 15 15 13 14 14 13 14 13 14 16 18 20 19 26 23 20 22
32 34 36 40 42 42 44 40 39 45 49 49 45 46 39 51 49 41 32 39 27 24 26 21 15 19 21 14 15 14 12 14 14 14 14 13 16 18 19 16 17 20 21 13
35 34 39 41 44 46 45 41 40 45 44 48 38 39 49 41 47 30 26 21 20 24 22 22 14 20 20 14 14 12 10 12 14 12 12 14 16 18 19 15 10 13 14 12
31 34 37 40 43 43 40 36 44 43 44 41 29 34 44 28 31 31 26 32 21 22 22 16 9 20 15 14 12 10 9 10 13 11 10 14 7 12 11 11 13 8 9 13
32 34 36 38 44 40 32 37 43 40 37 30 23 32 13 22 25 23 14 23 18 22 24 16 10 15 13 15 12 10 9 9 11 12 7 7 10 7 12 12 11 12 11 12
31 34 35 36 36 37 36 37 31 31 35 34 23 25 20 24 26 28 20 28 26 24 27 19 12 15 16 15 14 11 8 7 8 10 5 4 3 3 6 5 9 14 17 16
35 34 26 27 27 27 26 29 30 33 34 31 27 18 16 26 34 20 19 29 31 30 28 22 15 15 18 18 15 13 11 8 7 8 7 2 3 1 2 3 4 5 9 14
25 26 26 23 14 12 20 33 27 29 30 25 35 13 8 25 24 24 23 20 29 27 22 27 18 18 18 19 16 15 13 10 8 4 6 7 4 3 2 3 3 5 8 11
41 24 26 29 27 17 17 14 32 30 29 24 24 25 14 19 22 26 27 28 26 18 22 27 18 15 17 17 17 16 14 12 10 7 4 4 9 8 8 7 6 6 8 11
29 31 24 24 24 23 15 14 13 19 27 28 34 32 22 20 16 29 27 27 21 24 27 29 19 16 16 17 19 19 17 15 13 12 10 6 4 6 8 11 12 12 12 13
19 21 24 23 26 33 24 16 19 19 16 25 29 26 26 19 11 16 19 14 14 13 22 19 21 20 16 18 19 20 21 20 18 16 15 13 12 11 9 9 12 16 18 18
26 25 21 22 24 26 31 27 26 21 16 17 15 31 31 29 28 25 17 24 20 21 25 25 27 23 19 21 23 21 24 23 21 20 19 18 17 16 13 13 13 17 19 20
28 28 27 20 22 25 24 28 27 27 27 29 25 27 34 40 39 31 28 26 34 37 24 20 23 29 27 20 24 24 25 25 25 23 22 24 22 20 20 19 17 16 18 22
28 22 23 21 24 21 18 17 23 24 26 29 31 29 27 27 28 29 40 38 33 18 27 29 32 27 27 25 25 26 27 29 28 27 25 26 26 25 24 23 22 21 21 21
22 20 20 16 20 22 19 22 29 35 32 31 30 29 25 25 30 37 39 39 35 34 37 40 40 37 34 33 32 31 28 30 33 34 31 29 28 31 30 29 27 27 28 26
21 22 18 21 22 20 16 24 28 27 27 28 31 32 31 30 27 33 40 41 41 38 40 45 50 49 43 40 41 37 37 33 30 31 32 30 32 34 36 34 32 31 32 32
21 21 21 19 19 18 20 21 24 23 27 27 28 29 28 26 25 33 36 38 32 36 44 41 42 48 49 47 42 44 43 43 43 42 38 41 38 38 38 38 36 33 32 32
13 18 15 15 18 17 19 19 13 15 24 23 26 26 25 21 27 31 33 37 36 40 42 47 43 41 42 40 44 45 45 44 44 44 46 45 47 45 44 42 40 38 35 36
10 11 11 13 17 15 18 20 20 12 17 22 25 24 28 20 23 29 35 33 39 32 29 40 44 40 39 43 46 47 48 48 48 46 44 42 43 46 50 50 49 46 43 43
8 9 10 13 12 12 18 25 32 16 13 17 23 22 24 24 22 5 31 42 35 33 40 37 41 52 41 37 41 47 44 46 48 47 46 45 43 46 47 43 49 57 55 49
21 14 12 14 15 11 12 18 16 18 29 26 22 24 24 20 25 26 29 29 23 17 18 19 26 26 29 35 36 35 41 45 48 48 46 48 46 48 48 50 52 51 53 59
19 15 18 17 18 18 19 27 15 14 18 21 23 21 32 29 22 30 39 30 39 41 27 23 26 28 29 32 35 37 37 41 43 47 48 50 50 50 50 51 52 51 52 55
25 14 23 22 27 23 20 20 19 17 20 21 21 25 23 30 21 17 22 22 22 28 33 29 29 27 26 26 28 25 29 37 38 40 41 44 46 47 52 51 49 48 47 48
Wind_Direction
265 270 275 276 273 273 270 268 267 266 263 262 260 259 261 250 251 256 256 264 264 265 271 279 296 289 300 294 293 290 291 293 290 296 296 262 255 246 239 235 230 236 229 232
270 275 275 271 271 270 268 266 264 260 257 258 258 254 258 258 244 242 256 257 268 260 265 283 286 282 293 288 293 295 292 292 298 311 312 275 253 238 234 235 243 237 234 229
274 275 269 270 268 268 269 266 263 261 260 257 259 253 257 252 240 242 251 260 258 257 269 284 294 283 287 285 293 296 291 289 298 313 318 283 248 232 221 232 255 241 216 224
274 270 270 268 265 263 266 262 262 261 260 261 261 259 247 251 252 239 245 250 247 253 264 280 289 278 278 280 284 289 288 290 295 303 307 303 264 240 227 257 271 252 222 217
281 270 265 264 266 265 264 258 257 257 260 262 257 255 247 242 247 247 255 244 243 234 259 275 283 266 269 275 278 281 287 286 285 292 298 310 278 247 235 267 235 205 214 214
271 266 264 262 256 254 254 256 258 259 261 260 260 255 250 239 248 237 233 231 225 234 249 260 278 253 260 263 268 276 286 286 290 293 304 307 288 241 240 241 230 196 202 208
266 260 253 250 248 249 253 254 253 261 259 265 258 243 249 248 231 230 234 243 230 239 241 249 244 242 258 256 260 270 284 284 285 290 314 329 334 222 234 232 179 185 190 201
262 260 254 249 252 254 255 254 250 253 260 261 253 246 253 214 218 189 227 236 236 234 247 241 239 247 247 251 257 263 277 283 287 289 319 332 357 337 227 207 201 198 197 191
258 258 249 243 242 247 244 251 238 242 250 253 224 239 215 196 178 179 199 234 223 249 254 256 244 244 236 243 248 250 264 279 291 293 307 320 340 33 71 165 206 205 205 203
250 255 247 242 236 239 238 243 237 234 240 244 214 201 199 188 191 184 214 223 243 242 247 250 246 239 234 235 244 243 250 271 276 286 288 299 297 238 197 204 185 190 197 186
240 233 225 233 225 236 245 225 216 236 237 241 227 187 109 170 177 185 192 220 235 237 248 251 234 225 230 234 242 240 242 254 263 246 282 265 248 254 238 236 217 213 206 201
225 239 218 232 229 239 249 243 225 236 227 227 239 202 188 203 191 205 191 198 220 217 232 254 245 231 230 227 233 235 238 241 247 237 202 262 261 248 251 247 249 237 228 220
229 226 227 224 234 229 199 198 216 241 239 230 227 195 221 187 210 198 190 192 190 213 243 244 244 239 232 232 229 235 236 236 238 232 227 197 205 265 259 258 254 251 249 245
229 223 222 218 222 226 193 217 217 228 228 239 233 222 210 228 254 238 180 190 208 195 206 237 248 241 233 236 233 237 233 234 232 230 236 230 219 214 249 273 258 255 248 243
232 229 231 225 233 223 217 225 215 217 219 238 235 232 204 214 217 234 235 226 211 246 238 242 259 244 226 230 234 229 229 229 230 235 235 241 250 249 242 243 255 248 248 247
236 230 233 222 236 241 233 225 222 231 234 235 237 236 218 218 227 228 235 218 229 232 235 244 236 256 249 234 239 231 226 229 229 229 240 247 250 253 254 259 244 240 246 250
237 226 216 218 231 238 233 232 232 238 236 244 248 244 228 225 231 237 238 246 245 235 242 237 254 258 260 266 255 251 238 234 240 239 240 252 251 253 255 255 261 260 253 245
223 233 225 217 223 230 232 235 232 239 242 244 245 244 236 234 229 227 235 243 247 252 253 254 258 255 251 254 258 250 247 239 241 245 243 244 248 252 252 255 262 268 268 265
234 235 227 218 228 228 227 233 239 244 245 242 241 242 240 237 231 225 221 233 238 240 241 244 248 250 254 255 253 249 253 250 243 247 251 247 249 247 244 249 255 264 265 267
236 233 223 217 223 230 228 232 228 229 236 237 239 238 236 235 229 226 224 231 238 242 238 241 244 247 252 254 252 250 249 250 252 257 252 259 259 258 252 252 253 256 261 263
217 221 221 222 226 226 230 226 207 230 246 242 238 235 230 227 240 236 238 238 241 244 247 236 245 252 248 248 251 253 252 250 253 251 254 258 260 271 256 251 253 258 256 261
218 216 215 224 238 229 224 211 200 183 218 237 228 234 228 239 227 242 250 237 241 271 260 237 243 245 243 256 253 252 255 257 257 256 255 253 250 255 252 254 256 254 250 251
198 202 228 229 229 230 229 225 220 227 233 239 233 244 242 250 222 181 229 226 243 263 258 269 253 243 250 256 256 257 256 258 260 261 260 258 254 255 253 262 271 258 253 250
218 214 226 226 236 234 244 222 212 229 243 252 248 248 249 245 245 222 220 216 234 250 260 253 241 244 251 254 258 258 258 259 259 260 260 261 257 257 259 259 264 264 263 263
216 219 231 240 235 250 233 209 224 249 268 265 247 245 240 246 244 242 240 249 241 245 259 249 254 259 259 260 260 261 259 254 259 261 259 259 261 262 263 264 264 269 265 267
212 184 221 238 236 230 231 247 252 262 270 264 252 236 244 253 260 259 250 234 234 228 248 250 256 261 260 264 271 278 273 262 262 262 263 262 264 267 267 267 262 259 267 259